This is the latest recevied weather packets stored in our database for station/object N3DXC. If no packets are shown the sender has not sent any weather packets the latest 1 day(s).
| Time | Temp. | Humidity | Pressure | Rain* | Wind** | Luminosity | Snow |
|---|---|---|---|---|---|---|---|
| 1778032789 | 17.78° C | 54% | 1009.1 hPa | 0 mm | 2.24 m/s, 198° | - | - |
| 1778032490 | 17.78° C | 53% | 1009.2 hPa | 0 mm | 2.68 m/s, 206° | - | - |
| 1778032189 | 17.78° C | 53% | 1009.2 hPa | 0 mm | 3.13 m/s, 222° | - | - |
| 1778031889 | 18.33° C | 53% | 1009.1 hPa | 0 mm | 2.24 m/s, 219° | - | - |
| 1778031589 | 18.33° C | 52% | 1009.1 hPa | 0 mm | 2.68 m/s, 234° | - | - |
| 1778031290 | 18.33° C | 52% | 1009.1 hPa | 0 mm | 2.68 m/s, 244° | - | - |
| 1778030989 | 18.33° C | 52% | 1009.1 hPa | 0 mm | 3.13 m/s, 244° | - | - |
| 1778030747 | 18.33° C | 53% | 1009 hPa | 0 mm | 3.13 m/s, 248° | - | - |
| 1778030689 | 18.33° C | 53% | 1009 hPa | 0 mm | 3.13 m/s, 248° | - | - |
| 1778030389 | 18.33° C | 53% | 1009 hPa | 0 mm | 2.68 m/s, 248° | - | - |
| 1778030089 | 18.89° C | 52% | 1009 hPa | 0 mm | 3.13 m/s, 261° | - | - |
| 1778029789 | 18.33° C | 52% | 1009 hPa | 0 mm | 5.36 m/s, 250° | - | - |
| 1778029489 | 18.89° C | 53% | 1009.1 hPa | 0 mm | 3.13 m/s, 234° | - | - |
| 1778029189 | 18.89° C | 52% | 1008.9 hPa | 0 mm | 4.02 m/s, 241° | - | - |
| 1778028891 | 18.89° C | 53% | 1009 hPa | 0 mm | 4.02 m/s, 226° | - | - |
| 1778028589 | 18.89° C | 53% | 1009.1 hPa | 0 mm | 2.68 m/s, 227° | - | - |
| 1778028289 | 18.89° C | 53% | 1009.2 hPa | 0 mm | 2.68 m/s, 223° | - | - |
| 1778027989 | 18.89° C | 53% | 1009.2 hPa | 0 mm | 3.13 m/s, 220° | - | - |
| 1778027689 | 18.89° C | 53% | 1009.1 hPa | 0 mm | 4.02 m/s, 220° | - | - |
| 1778027389 | 19.44° C | 53% | 1009.1 hPa | 0 mm | 2.68 m/s, 226° | - | - |
| 1778027089 | 19.44° C | 53% | 1009.1 hPa | 0 mm | 3.58 m/s, 233° | - | - |
| 1778026789 | 19.44° C | 53% | 1009 hPa | 0 mm | 2.68 m/s, 232° | - | - |
| 1778026489 | 19.44° C | 52% | 1008.9 hPa | 0 mm | 4.02 m/s, 232° | - | - |
| 1778026189 | 19.44° C | 52% | 1008.9 hPa | 0 mm | 3.58 m/s, 234° | - | - |
| 1778025889 | 19.44° C | 53% | 1008.8 hPa | 0 mm | 4.02 m/s, 217° | - | - |
* Rain latest hour (hover to see other rain measurements)
** Current wind speed in m/s (hover to see current wind gust speed)